Zurück zum Katalog

CZ-3B DEB

AktivGTO
NORAD 39333·DEBRIS·🇨🇳 China

Gestartet Sep 4, 2010 von Xichang Satellite Launch Center

Loading…

TLE

VeraltetSource: Space-Track

Epoche: Sep 13, 2026, 06:14 UTC

1 39333U 10042E   26256.26025199 -.00000055  00000-0  39822-2 0  9990
2 39333  24.5633 353.3828 7460464 178.6173 226.2704  1.91303172 91800

Verfolge CZ-3B DEB in Echtzeit mit AllMySat

Download on the App Store